NORTHEAST SUFFOLK  -  Rip Current Statement Rip Current Statement        NORTHERN NASSAU  -  Rip Current Statement Rip Current Statement        NORTHERN QUEENS  -  Rip Current Statement Rip Current Statement        NORTHWEST SUFFOLK  -  Rip Current Statement Rip Current Statement        SOUTHEAST SUFFOLK  -  Rip Current Statement Rip Current Statement        SOUTHERN NASSAU  -  Rip Current Statement Rip Current Statement        SOUTHERN QUEENS  -  Rip Current Statement Rip Current Statement        SOUTHWEST SUFFOLK  -  Rip Current Statement Rip Current Statement      

Active alerts

Northern Queens
  Details for Northern Queens Rip Current Statement
Southern Queens
  Details for Southern Queens Rip Current Statement
Northern Nassau
  Details for Northern Nassau Rip Current Statement
Southern Nassau
  Details for Southern Nassau Rip Current Statement
Northwest Suffolk
  Details for Northwest Suffolk Rip Current Statement
Southwest Suffolk
  Details for Southwest Suffolk Rip Current Statement
Northeast Suffolk
  Details for Northeast Suffolk Rip Current Statement
Southeast Suffolk
  Details for Southeast Suffolk Rip Current Statement


WXM80 ListenWXM80 Stop

You find our weather info also at:

UK Metoffice

WeatherCloud

Weather Underground

Northeastern Weather Network

AWEKAS

Citizen Weather Observer Program (CWOP)

HAMweather, WeatherForYou, PWS Weather


Weather Underground History page Text

Daily Summary for September 3, 2017 Units:  Metric    English   Both
« Previous Day
Next Day »
Daily Weekly Monthly Yearly Custom
  High: Low: Average:
Temperature: 21.2 °C 14 °C 17.2 °C
Dew Point: 20.8 °C 13.1 °C 16 °C
Humidity: 98 % 81 % 93 %
Wind Speed: 11.7 km/h 0 km/h 2.4 km/h
Wind Gust: 31.5 km/h - -
Wind:- - South
Pressure: 1018.5 hPa 1008 hPa -
Precipitation: 11.68 mm    
Historical Graphs
 
 
Tabular Data for September 3, 2017
Time Temperature Dew Point Pressure Wind Wind Speed Wind Gust Humidity Rainfall Rate (Hourly)
00:02 14.3 °C 13.2 °C 1018.5 hPa Calm   1.9 km/h 93 % 3.56 mm
00:07 14.3 °C 13.2 °C 1018.5 hPa ESE 0.2 km/h 1.9 km/h 93 % 3.81 mm
00:12 14.2 °C 13.1 °C 1018.2 hPa ESE 0.8 km/h 3.7 km/h 93 % 4.83 mm
00:17 14.2 °C 13.3 °C 1017.8 hPa ESE 1.8 km/h 3.7 km/h 94 % 0.51 mm
00:22 14.2 °C 13.3 °C 1018.2 hPa ESE 1.3 km/h 3.7 km/h 94 % 1.02 mm
00:27 14.2 °C 13.2 °C 1017.8 hPa SE 1.3 km/h 1.9 km/h 94 % 1.02 mm
00:32 14.1 °C 13.2 °C 1017.8 hPa ESE 1 km/h 3.7 km/h 94 % 1.02 mm
00:37 14.1 °C 13.2 °C 1017.8 hPa ESE 2.4 km/h 6.4 km/h 94 % 1.02 mm
00:42 14.1 °C 13.1 °C 1017.5 hPa ESE 2.4 km/h 3.7 km/h 94 % 0.76 mm
00:47 14.1 °C 13.3 °C 1017.5 hPa ESE 2.9 km/h 3.7 km/h 95 % 0.51 mm
00:52 14 °C 13.2 °C 1017.5 hPa ESE 2.4 km/h 5.6 km/h 95 % 0.51 mm
00:57 14 °C 13.2 °C 1017.5 hPa ESE 2.7 km/h 6.4 km/h 95 % 0 mm
01:02 14 °C 13.2 °C 1017.5 hPa ESE 2.9 km/h 4.8 km/h 95 % 5.33 mm
01:07 14 °C 13.2 °C 1017.2 hPa ESE 2.7 km/h 5.6 km/h 95 % 5.08 mm
01:12 14 °C 13.2 °C 1016.8 hPa ESE 1.9 km/h 3.7 km/h 95 % 4.06 mm
01:17 14 °C 13.2 °C 1016.8 hPa SE 3.4 km/h 5.6 km/h 95 % 3.3 mm
01:22 14.1 °C 13.4 °C 1016.8 hPa ESE 2.4 km/h 5.6 km/h 96 % 2.54 mm
01:27 14.1 °C 13.4 °C 1016.8 hPa ESE 1.3 km/h 3.7 km/h 96 % 2.79 mm
01:32 14.1 °C 13.5 °C 1016.5 hPa ESE 1.4 km/h 5.6 km/h 96 % 2.54 mm
01:37 14.2 °C 13.6 °C 1016.5 hPa ESE 0.8 km/h 3.7 km/h 96 % 2.54 mm
01:42 14.2 °C 13.6 °C 1016.5 hPa Calm   1.9 km/h 96 % 2.79 mm
01:47 14.2 °C 13.6 °C 1016.5 hPa Calm   1.9 km/h 96 % 2.54 mm
01:52 14.2 °C 13.6 °C 1016.5 hPa ESE 3.2 km/h 5.6 km/h 96 % 2.29 mm
01:57 14.3 °C 13.7 °C 1016.5 hPa ESE 2.7 km/h 5.6 km/h 96 % 2.03 mm
02:02 14.3 °C 13.7 °C 1016.1 hPa East 2.3 km/h 5.6 km/h 96 % 2.79 mm
02:07 14.4 °C 13.8 °C 1016.1 hPa ESE 1.1 km/h 3.7 km/h 96 % 2.54 mm
02:12 14.4 °C 13.8 °C 1016.1 hPa East 2.1 km/h 5.6 km/h 96 % 2.29 mm
02:17 14.4 °C 13.8 °C 1015.8 hPa East 2.3 km/h 3.7 km/h 96 % 2.03 mm
02:22 14.5 °C 14.1 °C 1015.8 hPa ESE 1.9 km/h 5.6 km/h 97 % 2.03 mm
02:27 14.5 °C 14.1 °C 1015.8 hPa East 1.6 km/h 1.9 km/h 97 % 1.78 mm
02:32 14.5 °C 14.1 °C 1015.5 hPa East 1 km/h 3.7 km/h 97 % 1.78 mm
02:37 14.5 °C 14.1 °C 1015.5 hPa ESE 3.2 km/h 5.6 km/h 97 % 1.52 mm
02:43 14.6 °C 14.1 °C 1015.5 hPa ESE 0.8 km/h 3.7 km/h 97 % 1.27 mm
02:48 14.6 °C 14.1 °C 1015.5 hPa ESE 1.9 km/h 5.6 km/h 97 % 1.52 mm
02:53 14.6 °C 14.1 °C 1015.5 hPa ENE 2.9 km/h 5.6 km/h 97 % 1.27 mm
02:58 14.6 °C 14.1 °C 1015.5 hPa East 2.4 km/h 5.6 km/h 97 % 1.02 mm
03:03 14.5 °C 14.1 °C 1015.5 hPa East 1.1 km/h 5.6 km/h 97 % 0.25 mm
03:08 14.6 °C 14.1 °C 1015.5 hPa SE 1.9 km/h 5.6 km/h 97 % 0.25 mm
03:13 14.6 °C 14.1 °C 1015.5 hPa ESE 1.3 km/h 3.7 km/h 97 % 0.25 mm
03:18 14.6 °C 14.1 °C 1015.1 hPa ESE 1 km/h 3.7 km/h 97 % 0.25 mm
03:23 14.6 °C 14.1 °C 1014.8 hPa ESE 2.3 km/h 3.7 km/h 97 % 0.25 mm
03:28 14.6 °C 14.1 °C 1014.8 hPa East 1.9 km/h 5.6 km/h 97 % 0.25 mm
03:33 14.6 °C 14.2 °C 1014.8 hPa East 1.8 km/h 5.6 km/h 97 % 0.25 mm
03:38 14.6 °C 14.2 °C 1014.8 hPa East 2.9 km/h 5.6 km/h 97 % 0.25 mm
03:43 14.6 °C 14.2 °C 1014.8 hPa East 1.8 km/h 3.7 km/h 97 % 0.25 mm
03:48 14.7 °C 14.2 °C 1014.8 hPa East 3.7 km/h 5.6 km/h 97 % 0 mm
03:53 14.7 °C 14.2 °C 1014.4 hPa ESE 1.8 km/h 5.6 km/h 97 % 0 mm
03:58 14.7 °C 14.2 °C 1014.4 hPa ESE 1.6 km/h 3.7 km/h 97 % 0 mm
04:00 14.7 °C 14.2 °C 1014.4 hPa East 2.7 km/h 5.6 km/h 97 % 0 mm
04:05 14.7 °C 14.2 °C 1014.4 hPa East 1.9 km/h 5.6 km/h 97 % 0 mm
04:10 14.7 °C 14.3 °C 1014.1 hPa ESE 3.5 km/h 7.4 km/h 97 % 0.25 mm
04:15 14.7 °C 14.3 °C 1014.1 hPa East 1.8 km/h 3.7 km/h 97 % 0.25 mm
04:20 14.8 °C 14.3 °C 1014.1 hPa East 0.8 km/h 3.7 km/h 97 % 0.51 mm
04:25 14.8 °C 14.3 °C 1014.1 hPa East 2.6 km/h 5.6 km/h 97 % 0.76 mm
04:30 14.8 °C 14.3 °C 1013.8 hPa East 2.6 km/h 5.6 km/h 97 % 0.76 mm
04:35 14.8 °C 14.4 °C 1013.8 hPa ESE 1 km/h 1.9 km/h 97 % 0.76 mm
04:40 14.8 °C 14.4 °C 1013.8 hPa ESE 1.8 km/h 3.7 km/h 97 % 0.76 mm
04:45 14.8 °C 14.4 °C 1013.8 hPa ESE 1.6 km/h 11.3 km/h 97 % 0 mm
04:50 14.8 °C 14.4 °C 1013.8 hPa ESE 1.6 km/h 8 km/h 97 % 0.25 mm
04:55 14.8 °C 14.4 °C 1013.8 hPa Calm   3.2 km/h 97 % 0 mm
05:00 14.8 °C 14.3 °C 1013.8 hPa ESE 4.7 km/h 8 km/h 97 % 1.78 mm
05:01 14.8 °C 14.3 °C 1013.8 hPa ESE 4.7 km/h 8 km/h 97 % 1.78 mm
05:06 14.8 °C 14.3 °C 1013.8 hPa ESE 1.6 km/h 5.6 km/h 97 % 1.78 mm
05:11 14.7 °C 14.3 °C 1013.8 hPa SE 3.4 km/h 5.6 km/h 97 % 1.78 mm
05:16 14.7 °C 14.2 °C 1013.8 hPa ESE 1.4 km/h 5.6 km/h 97 % 1.78 mm
05:21 14.7 °C 14.2 °C 1014.1 hPa East 1.6 km/h 3.7 km/h 97 % 1.27 mm
05:26 14.6 °C 14.2 °C 1014.1 hPa East 0.8 km/h 1.9 km/h 97 % 1.27 mm
05:31 14.6 °C 14.2 °C 1014.1 hPa Calm   3.7 km/h 97 % 1.27 mm
05:36 14.6 °C 14.2 °C 1014.4 hPa East 0.2 km/h   97 % 1.27 mm
05:41 14.6 °C 14.2 °C 1014.1 hPa East 0.3 km/h 3.7 km/h 97 % 1.27 mm
05:46 14.6 °C 14.2 °C 1014.1 hPa East 0.3 km/h 1.9 km/h 97 % 1.02 mm
05:52 14.6 °C 14.2 °C 1014.1 hPa ESE 0.8 km/h 1.9 km/h 97 % 0.76 mm
05:57 14.7 °C 14.2 °C 1013.8 hPa ESE 1.9 km/h 3.7 km/h 97 % 0.25 mm
06:02 14.7 °C 14.2 °C 1013.8 hPa ESE 1.6 km/h 3.7 km/h 97 % 0.25 mm
06:07 14.7 °C 14.2 °C 1013.8 hPa ESE 1.6 km/h 3.7 km/h 97 % 0 mm
06:12 14.7 °C 14.2 °C 1013.4 hPa East 1.6 km/h 3.7 km/h 97 % 0.25 mm
06:17 14.7 °C 14.2 °C 1013.4 hPa East 1.6 km/h 3.7 km/h 97 % 0.25 mm
06:22 14.7 °C 14.2 °C 1013.4 hPa East 0.3 km/h 3.7 km/h 97 % 0.25 mm
06:27 14.7 °C 14.3 °C 1013.4 hPa Calm   1.9 km/h 97 % 0.25 mm
06:32 14.7 °C 14.3 °C 1013.4 hPa East 2.4 km/h 3.7 km/h 97 % 0.25 mm
06:37 14.7 °C 14.3 °C 1013.4 hPa ESE 1 km/h 3.2 km/h 97 % 0.25 mm
06:43 14.7 °C 14.3 °C 1013.8 hPa Calm   1.9 km/h 97 % 0.25 mm
06:48 14.7 °C 14.3 °C 1013.4 hPa East 2.9 km/h 5.6 km/h 97 % 0.25 mm
06:53 14.8 °C 14.3 °C 1013.4 hPa Calm   1.9 km/h 97 % 0.25 mm
06:58 14.8 °C 14.3 °C 1013.4 hPa East 0.6 km/h 5.6 km/h 97 % 0.25 mm
07:03 14.8 °C 14.3 °C 1013.4 hPa East 0.2 km/h 3.7 km/h 97 % 0.25 mm
07:08 14.8 °C 14.4 °C 1013.4 hPa East 0.5 km/h 1.9 km/h 97 % 0.25 mm
07:13 14.9 °C 14.4 °C 1013.1 hPa ESE 1.4 km/h 5.6 km/h 97 % 0 mm
07:18 14.9 °C 14.6 °C 1013.1 hPa ESE 1.3 km/h 3.7 km/h 98 % 0 mm
07:23 14.9 °C 14.6 °C 1013.1 hPa ESE 1.3 km/h 3.7 km/h 98 % 0 mm
07:28 15.1 °C 14.7 °C 1013.1 hPa East 1.8 km/h 5.6 km/h 98 % 0 mm
07:33 15.1 °C 14.7 °C 1013.1 hPa East 0.5 km/h 1.9 km/h 98 % 0 mm
07:38 15.1 °C 14.6 °C 1013.1 hPa East 1.4 km/h 3.7 km/h 97 % 0 mm
07:43 15.2 °C 14.7 °C 1013.1 hPa SE 2.7 km/h 6.4 km/h 97 % 0 mm
07:49 15.2 °C 14.7 °C 1012.8 hPa ESE 1.4 km/h 3.2 km/h 97 % 0 mm
07:54 15.2 °C 14.7 °C 1012.8 hPa ESE 1.1 km/h 3.7 km/h 97 % 0 mm
07:59 15.3 °C 14.8 °C 1012.8 hPa ESE 0.3 km/h 3.7 km/h 97 % 0 mm
08:04 15.3 °C 15 °C 1012.8 hPa East 3.2 km/h 3.7 km/h 98 % 0 mm
08:09 15.3 °C 15 °C 1012.8 hPa ENE 0.6 km/h 3.7 km/h 98 % 0 mm
08:14 15.4 °C 15.1 °C 1012.4 hPa ESE 1.4 km/h 3.7 km/h 98 % 0 mm
08:19 15.4 °C 15.1 °C 1012.4 hPa ESE 2.4 km/h 5.6 km/h 98 % 0 mm
08:24 15.5 °C 15.2 °C 1012.4 hPa ESE 1.3 km/h 3.7 km/h 98 % 0 mm
08:29 15.6 °C 15.2 °C 1012.4 hPa ESE 0.5 km/h 3.7 km/h 98 % 0 mm
08:34 15.6 °C 15.2 °C 1012.4 hPa SE 2.7 km/h 5.6 km/h 98 % 0 mm
08:39 15.7 °C 15.3 °C 1012.4 hPa ESE 2.4 km/h 5.6 km/h 98 % 0 mm
08:44 15.7 °C 15.4 °C 1012.1 hPa SE 2.1 km/h 8 km/h 98 % 0 mm
08:49 15.8 °C 15.4 °C 1012.4 hPa East 1.6 km/h 3.7 km/h 98 % 0 mm
08:54 15.8 °C 15.5 °C 1012.4 hPa Calm   5.6 km/h 98 % 0 mm
08:59 15.8 °C 15.5 °C 1012.1 hPa ESE 1.9 km/h 5.6 km/h 98 % 0 mm
09:04 15.9 °C 15.6 °C 1012.1 hPa ESE 2.1 km/h 3.7 km/h 98 % 0 mm
09:09 15.9 °C 15.6 °C 1012.1 hPa East 1.6 km/h 5.6 km/h 98 % 0 mm
09:14 15.9 °C 15.6 °C 1011.7 hPa ESE 1.3 km/h 4.8 km/h 98 % 0 mm
09:19 16.1 °C 15.7 °C 1011.7 hPa East 2.7 km/h 7.4 km/h 98 % 0 mm
09:24 16.1 °C 15.8 °C 1011.7 hPa ESE 2.3 km/h 5.6 km/h 98 % 0 mm
09:29 16.2 °C 15.8 °C 1011.7 hPa ESE 1.4 km/h 11.1 km/h 98 % 0 mm
09:34 16.2 °C 15.9 °C 1011.7 hPa ESE 3.1 km/h 6.4 km/h 98 % 0 mm
09:39 16.3 °C 16 °C 1011.4 hPa ESE 2.3 km/h 5.6 km/h 98 % 0 mm
09:44 16.4 °C 16.1 °C 1011.4 hPa SE 2.4 km/h 9.3 km/h 98 % 0 mm
09:49 16.5 °C 16.2 °C 1011.4 hPa ESE 1.4 km/h 5.6 km/h 98 % 0 mm
09:54 16.5 °C 16.2 °C 1011.1 hPa ESE 1.4 km/h 3.7 km/h 98 % 0 mm
09:59 16.6 °C 16.2 °C 1011.1 hPa ESE 1.1 km/h 3.7 km/h 98 % 0 mm
10:04 16.6 °C 16.3 °C 1011.1 hPa East 1.1 km/h 5.6 km/h 98 % 0 mm
10:09 16.7 °C 16.3 °C 1011.1 hPa ESE 2.4 km/h 5.6 km/h 98 % 0 mm
10:14 16.7 °C 16.4 °C 1010.7 hPa SE 2.1 km/h 5.6 km/h 98 % 0 mm
10:19 16.8 °C 16.5 °C 1010.7 hPa ESE 4.5 km/h 11.1 km/h 98 % 0 mm
10:24 16.8 °C 16.5 °C 1010.7 hPa ESE 1 km/h 5.6 km/h 98 % 0 mm
10:29 16.9 °C 16.6 °C 1010.7 hPa ESE 1.6 km/h 5.6 km/h 98 % 0.25 mm
10:34 17 °C 16.7 °C 1010.4 hPa ESE 1.3 km/h 5.6 km/h 98 % 0.51 mm
10:39 17.1 °C 16.7 °C 1010.4 hPa ESE 0.8 km/h 1.9 km/h 98 % 0.51 mm
10:44 17.1 °C 16.8 °C 1010 hPa ESE 1.4 km/h 3.7 km/h 98 % 0.76 mm
10:49 17.2 °C 16.8 °C 1010 hPa ESE 1.6 km/h 3.7 km/h 98 % 0.76 mm
10:54 17.2 °C 16.9 °C 1010 hPa ESE 0.6 km/h 3.7 km/h 98 % 0.76 mm
10:59 17.3 °C 16.9 °C 1010 hPa ESE 1.9 km/h 3.7 km/h 98 % 0.76 mm
11:04 17.3 °C 17 °C 1010 hPa ESE 1.6 km/h 7.4 km/h 98 % 1.02 mm
11:09 17.4 °C 17.1 °C 1010 hPa ESE 1.6 km/h 3.2 km/h 98 % 1.02 mm
11:14 17.5 °C 17.2 °C 1009.7 hPa ESE 1.1 km/h 3.2 km/h 98 % 1.02 mm
11:19 17.6 °C 17.2 °C 1009.7 hPa Calm   1.9 km/h 98 % 1.02 mm
11:24 17.6 °C 17.3 °C 1009.7 hPa SE 3.2 km/h 9.7 km/h 98 % 1.02 mm
11:29 17.7 °C 17.4 °C 1009.7 hPa SE 2.4 km/h 5.6 km/h 98 % 0.76 mm
11:34 17.8 °C 17.5 °C 1009.7 hPa SE 3.2 km/h 5.6 km/h 98 % 0.51 mm
11:39 18 °C 17.7 °C 1009.7 hPa SE 1.8 km/h 5.6 km/h 98 % 0.51 mm
11:45 18.2 °C 17.8 °C 1009.7 hPa Calm   3.7 km/h 98 % 0.25 mm
11:50 18.2 °C 17.9 °C 1009.7 hPa Calm   5.6 km/h 98 % 0.25 mm
11:55 18.3 °C 17.9 °C 1009.4 hPa SE 1.6 km/h 4.8 km/h 98 % 0.25 mm
12:00 18.4 °C 18.1 °C 1009.4 hPa Calm     98 % 0.25 mm
12:05 18.5 °C 18.2 °C 1009.4 hPa Calm     98 % 0 mm
12:10 18.6 °C 18.3 °C 1009.4 hPa West 2.3 km/h 5.6 km/h 98 % 0 mm
12:15 18.7 °C 18.4 °C 1009 hPa West 0.6 km/h 3.7 km/h 98 % 0 mm
12:20 18.8 °C 18.5 °C 1009 hPa Calm   5.6 km/h 98 % 0 mm
12:25 19 °C 18.7 °C 1009 hPa WSW 1.6 km/h 5.6 km/h 98 % 0 mm
12:30 19.2 °C 18.8 °C 1009 hPa SW 1.4 km/h 3.7 km/h 98 % 0 mm
12:35 19.3 °C 18.9 °C 1008.7 hPa Calm     98 % 0 mm
12:40 19.4 °C 19.1 °C 1008.7 hPa Calm     98 % 0 mm
12:51 19.7 °C 19.3 °C 1008.4 hPa Calm     98 % 0 mm
12:56 19.9 °C 19.6 °C 1008.4 hPa Calm   3.7 km/h 98 % 0 mm
13:01 20.2 °C 19.8 °C 1008.4 hPa Calm   1.9 km/h 98 % 0 mm
13:06 20.4 °C 20.1 °C 1008.4 hPa SSE 5 km/h 5.6 km/h 98 % 0 mm
13:11 20.5 °C 20.2 °C 1008.4 hPa SSE 0.3 km/h 7.4 km/h 98 % 0 mm
13:16 20.7 °C 20.3 °C 1008.4 hPa SSE 0.2 km/h 1.9 km/h 98 % 0 mm
13:21 20.8 °C 20.5 °C 1008.4 hPa SE 1.4 km/h 3.7 km/h 98 % 0 mm
13:26 20.9 °C 20.6 °C 1008 hPa South 1.3 km/h 5.6 km/h 98 % 0 mm
13:31 21.1 °C 20.7 °C 1008 hPa SSW 6.3 km/h 11.1 km/h 98 % 0 mm
13:36 21.1 °C 20.8 °C 1008 hPa SSW 7.7 km/h 14.8 km/h 98 % 0 mm
13:41 21.2 °C 20.8 °C 1008 hPa WNW 11.7 km/h 16.7 km/h 98 % 0 mm
13:46 21.2 °C 20.8 °C 1008.4 hPa SW 9.2 km/h 18.5 km/h 98 % 0 mm
13:51 21.2 °C 20.7 °C 1008.4 hPa WNW 10.3 km/h 31.5 km/h 97 % 0 mm
13:56 21.1 °C 20.4 °C 1008.4 hPa SW 10.3 km/h 16.7 km/h 96 % 0 mm
14:01 21 °C 20 °C 1008.4 hPa West 5.5 km/h 18.5 km/h 94 % 0 mm
14:06 20.9 °C 19.8 °C 1008.7 hPa WSW 9.5 km/h 16.7 km/h 93 % 0 mm
14:11 20.8 °C 19.4 °C 1008.7 hPa WSW 9.8 km/h 13 km/h 92 % 0 mm
14:16 20.7 °C 19.4 °C 1008.7 hPa West 5.6 km/h 11.1 km/h 92 % 0 mm
14:21 20.6 °C 19.1 °C 1008.7 hPa SW 3.4 km/h 9.7 km/h 91 % 0 mm
14:26 20.5 °C 19 °C 1008.7 hPa NW 6.8 km/h 13 km/h 91 % 0 mm
14:31 20.4 °C 18.9 °C 1008.7 hPa West 5.3 km/h 9.7 km/h 91 % 0 mm
14:36 20.3 °C 18.8 °C 1008.7 hPa SW 3.7 km/h 9.3 km/h 91 % 0 mm
14:41 20.3 °C 18.6 °C 1008.7 hPa WNW 7.7 km/h 13 km/h 90 % 0 mm
14:46 20.1 °C 18.2 °C 1008.7 hPa WSW 6.9 km/h 9.7 km/h 89 % 0 mm
14:51 19.9 °C 18.1 °C 1009 hPa WSW 2.6 km/h 5.6 km/h 89 % 0 mm
14:56 19.7 °C 17.8 °C 1009 hPa WSW 9.5 km/h 18.5 km/h 89 % 0 mm
15:01 19.6 °C 17.7 °C 1009 hPa West 6.4 km/h 12.9 km/h 89 % 0 mm
15:06 19.5 °C 17.6 °C 1009 hPa West 6.8 km/h 11.1 km/h 89 % 0 mm
15:11 19.4 °C 17.6 °C 1009 hPa West 6.8 km/h 11.1 km/h 89 % 0 mm
15:16 19.3 °C 17.5 °C 1009 hPa WNW 6.4 km/h 8 km/h 89 % 0 mm
15:21 19.3 °C 17.5 °C 1009.4 hPa SW 8.9 km/h 18.5 km/h 89 % 0 mm
15:26 19.3 °C 17.4 °C 1009 hPa West 6.9 km/h 20.4 km/h 89 % 0 mm
15:31 19.3 °C 17.2 °C 1009 hPa WNW 1.4 km/h 13 km/h 88 % 0 mm
15:36 19.3 °C 17.2 °C 1008.7 hPa SSW 7.1 km/h 13 km/h 88 % 0 mm
15:42 19.4 °C 17.6 °C 1008.7 hPa WNW 7.7 km/h 13 km/h 89 % 0 mm
15:47 19.4 °C 17.4 °C 1008.4 hPa WSW 5 km/h 13 km/h 88 % 0 mm
15:52 19.5 °C 17.3 °C 1008.4 hPa WNW 4.5 km/h 11.1 km/h 87 % 0 mm
15:57 19.7 °C 17.8 °C 1008.4 hPa WNW 4.7 km/h 18.5 km/h 89 % 0 mm
16:02 19.7 °C 17.3 °C 1008.4 hPa WNW 6.9 km/h 11.1 km/h 86 % 0 mm
16:07 19.8 °C 17.4 °C 1008.7 hPa West 2.3 km/h 13 km/h 86 % 0 mm
16:12 19.9 °C 17.5 °C 1008.7 hPa WSW 2.9 km/h 5.6 km/h 86 % 0 mm
16:17 19.9 °C 17.5 °C 1008.4 hPa Calm   1.9 km/h 86 % 0 mm
16:22 19.9 °C 17.5 °C 1008.4 hPa WSW 1 km/h 3.2 km/h 86 % 0 mm
16:27 19.9 °C 17.5 °C 1008.4 hPa WSW 4.2 km/h 9.3 km/h 86 % 0 mm
16:32 19.8 °C 17.4 °C 1008.4 hPa WSW 0.6 km/h 5.6 km/h 86 % 0 mm
16:37 19.8 °C 17.4 °C 1008.4 hPa WSW 3.1 km/h 14.8 km/h 86 % 0 mm
16:42 19.8 °C 17.4 °C 1008.4 hPa SW 6.1 km/h 12.9 km/h 86 % 0 mm
16:47 19.8 °C 17.4 °C 1008.7 hPa WSW 8 km/h 14.8 km/h 86 % 0 mm
16:52 19.8 °C 17.4 °C 1008.7 hPa SW 1.9 km/h 6.4 km/h 86 % 0 mm
16:57 19.9 °C 17.7 °C 1009 hPa West 6.6 km/h 11.1 km/h 87 % 0 mm
16:59 19.9 °C 17.7 °C 1008.7 hPa West 8.7 km/h 8.7 km/h 87 % 0 mm
17:04 19.9 °C 17.7 °C 1009 hPa West 4.7 km/h 5.6 km/h 87 % 0 mm
17:10 20.1 °C 18 °C 1008.7 hPa West 1.8 km/h 11.1 km/h 88 % 0 mm
17:15 20.2 °C 17.9 °C 1009 hPa WSW 4.5 km/h 9.3 km/h 87 % 0 mm
17:20 20.2 °C 17.7 °C 1009 hPa WSW 5 km/h 11.3 km/h 86 % 0 mm
17:25 20.3 °C 17.8 °C 1009 hPa WSW 3.4 km/h 9.3 km/h 86 % 0 mm
17:30 20.3 °C 17.7 °C 1009 hPa WNW 10.5 km/h 20.4 km/h 85 % 0 mm
17:35 20.3 °C 17.7 °C 1009 hPa WNW 3.7 km/h 9.3 km/h 85 % 0 mm
17:40 20.4 °C 17.8 °C 1009 hPa SW 6.3 km/h 9.7 km/h 85 % 0 mm
17:45 20.4 °C 17.8 °C 1009 hPa West 2.7 km/h 5.6 km/h 85 % 0 mm
17:55 20.4 °C 17.6 °C 1009 hPa West 2.6 km/h 5.6 km/h 84 % 0 mm
18:00 20.3 °C 17.7 °C 1009 hPa WNW 1.3 km/h 3.2 km/h 85 % 0 mm
18:05 20.3 °C 17.6 °C 1009 hPa WNW 3.7 km/h 5.6 km/h 84 % 0 mm
18:10 20.3 °C 17.3 °C 1009 hPa West 1.9 km/h 5.6 km/h 83 % 0 mm
18:16 20.2 °C 17.1 °C 1009 hPa WNW 5.8 km/h 11.3 km/h 82 % 0 mm
18:21 20.2 °C 17 °C 1009 hPa WNW 4.8 km/h 11.3 km/h 82 % 0 mm
18:26 20.1 °C 16.9 °C 1009 hPa West 3.2 km/h 9.7 km/h 82 % 0 mm
18:31 20.1 °C 16.7 °C 1009 hPa WSW 3.2 km/h 12.9 km/h 81 % 0 mm
18:36 20 °C 16.6 °C 1009.4 hPa WSW 8 km/h 16.1 km/h 81 % 0 mm
18:41 19.9 °C 16.6 °C 1009.4 hPa West 1.6 km/h 9.7 km/h 81 % 0 mm
18:46 19.9 °C 16.6 °C 1009.4 hPa West 4.8 km/h 12.9 km/h 81 % 0 mm
18:51 19.8 °C 16.7 °C 1009.4 hPa Calm   9.7 km/h 82 % 0 mm
18:56 19.8 °C 16.6 °C 1009.4 hPa Calm   9.7 km/h 82 % 0 mm
19:01 19.7 °C 16.6 °C 1009.4 hPa WNW 1 km/h 1.9 km/h 82 % 0 mm
19:06 19.6 °C 16.4 °C 1009.4 hPa West 1.6 km/h 8 km/h 82 % 0 mm
19:11 19.6 °C 16.4 °C 1009.7 hPa WSW 2.6 km/h 2.6 km/h 82 % 0 mm
19:16 19.4 °C 16.5 °C 1009.7 hPa Calm   5.6 km/h 83 % 0 mm
19:21 19.4 °C 16.5 °C 1009.7 hPa WSW 1.6 km/h 4.8 km/h 83 % 0 mm
19:26 19.3 °C 16.4 °C 1009.7 hPa Calm     83 % 0 mm
19:31 19.3 °C 16.5 °C 1009.7 hPa Calm   3.2 km/h 84 % 0 mm
19:36 19.2 °C 16.4 °C 1009.7 hPa Calm     84 % 0 mm
19:41 19.1 °C 16.3 °C 1009.7 hPa Calm   1.6 km/h 84 % 0 mm
19:46 19 °C 16.4 °C 1009.7 hPa Calm     85 % 0 mm
19:51 18.9 °C 16.3 °C 1009.7 hPa Calm     85 % 0 mm
19:56 18.8 °C 16.2 °C 1009.7 hPa Calm   1.6 km/h 85 % 0 mm
20:01 18.7 °C 16.3 °C 1009.7 hPa Calm     86 % 0 mm
20:06 18.6 °C 16.2 °C 1010 hPa Calm   1.6 km/h 86 % 0 mm
20:11 18.4 °C 16.2 °C 1009.7 hPa Calm   5.6 km/h 87 % 0 mm
20:16 18.3 °C 16.1 °C 1009.7 hPa Calm     87 % 0 mm
20:21 18.2 °C 16 °C 1009.7 hPa Calm   1.6 km/h 87 % 0 mm
20:26 18.1 °C 15.9 °C 1009.7 hPa Calm   6.4 km/h 87 % 0 mm
20:31 18 °C 15.8 °C 1010 hPa WSW 0.8 km/h 1.9 km/h 87 % 0 mm
20:36 17.9 °C 15.7 °C 1010 hPa Calm   3.2 km/h 87 % 0 mm
20:41 17.8 °C 15.6 °C 1010 hPa Calm   3.2 km/h 87 % 0 mm
20:46 17.7 °C 15.7 °C 1010 hPa Calm   4.8 km/h 88 % 0 mm
20:51 17.7 °C 15.7 °C 1010.4 hPa Calm   4.8 km/h 88 % 0 mm
20:55 17.6 °C 15.6 °C 1010 hPa SW 1.3 km/h 1.9 km/h 88 % 0 mm
20:58 17.6 °C 15.6 °C 1010 hPa SW 0.2 km/h 1.9 km/h 88 % 0 mm
21:03 17.4 °C 15.4 °C 1010 hPa West 1.9 km/h 4.8 km/h 88 % 0 mm
21:08 17.4 °C 15.4 °C 1010 hPa Calm   1.9 km/h 88 % 0 mm
21:13 17.4 °C 15.4 °C 1010 hPa Calm   1.9 km/h 88 % 0 mm
21:19 17.4 °C 15.4 °C 1010.4 hPa WSW 0.6 km/h 5.6 km/h 88 % 0 mm
21:24 17.4 °C 15.4 °C 1010.4 hPa Calm   3.7 km/h 88 % 0 mm
21:29 17.4 °C 15.4 °C 1010.4 hPa Calm   3.7 km/h 88 % 0 mm
21:34 17.4 °C 15.4 °C 1010.4 hPa WSW 2.4 km/h 7.4 km/h 88 % 0 mm
21:39 17.4 °C 15.4 °C 1010.4 hPa SW 6.8 km/h 20.4 km/h 88 % 0 mm
21:44 17.4 °C 15.4 °C 1010.4 hPa Calm   1.9 km/h 88 % 0 mm
21:49 17.5 °C 15.5 °C 1010.4 hPa West 0.6 km/h 13 km/h 88 % 0 mm
21:54 17.6 °C 15.6 °C 1010.4 hPa WSW 4.5 km/h 9.3 km/h 88 % 0 mm
21:59 17.6 °C 15.6 °C 1010.4 hPa WSW 2.9 km/h 5.6 km/h 88 % 0 mm
22:04 17.7 °C 15.7 °C 1010.4 hPa WSW 1.4 km/h 5.6 km/h 88 % 0 mm
22:09 17.7 °C 15.7 °C 1010.4 hPa Calm   1.9 km/h 88 % 0 mm
22:14 17.7 °C 15.6 °C 1010.4 hPa WSW 4 km/h 9.3 km/h 87 % 0 mm
22:19 17.7 °C 15.6 °C 1010.4 hPa WSW 0.8 km/h 5.6 km/h 87 % 0 mm
22:24 17.8 °C 15.6 °C 1010.4 hPa West 1 km/h 5.6 km/h 87 % 0 mm
22:29 17.7 °C 15.6 °C 1010.4 hPa SSW 1.3 km/h 5.6 km/h 87 % 0 mm
22:34 17.7 °C 15.5 °C 1010.4 hPa WSW 3.2 km/h 5.6 km/h 87 % 0 mm
22:39 17.7 °C 15.5 °C 1010.7 hPa SW 4.2 km/h 7.4 km/h 87 % 0 mm
22:44 17.7 °C 15.7 °C 1010.7 hPa WSW 1 km/h 3.7 km/h 88 % 0 mm
22:49 17.7 °C 15.7 °C 1010.4 hPa SW 3.4 km/h 7.4 km/h 88 % 0 mm
22:54 17.7 °C 15.7 °C 1010.7 hPa SW 4.7 km/h 13 km/h 88 % 0 mm
23:00 17.7 °C 15.7 °C 1010.7 hPa WNW 2.7 km/h 5.6 km/h 88 % 0 mm
23:05 17.8 °C 15.8 °C 1010.4 hPa West 6.4 km/h 13 km/h 88 % 0 mm
23:10 17.9 °C 15.9 °C 1010.4 hPa West 6.8 km/h 16.7 km/h 88 % 0 mm
23:16 18 °C 15.8 °C 1010.7 hPa WSW 3.4 km/h 14.8 km/h 87 % 0 mm
23:20 18.2 °C 15.9 °C 1010.7 hPa SSW 0.5 km/h 1.9 km/h 87 % 0 mm
23:25 18.2 °C 15.8 °C 1010.4 hPa WSW 5 km/h 5.6 km/h 86 % 0 mm
23:30 18.3 °C 15.9 °C 1010.4 hPa WSW 5.5 km/h 13 km/h 86 % 0 mm
23:35 18.3 °C 15.9 °C 1010.4 hPa West 0.5 km/h 3.7 km/h 86 % 0 mm
23:40 18.4 °C 15.8 °C 1010.4 hPa WSW 4.8 km/h 11.1 km/h 85 % 0 mm
23:45 18.4 °C 15.8 °C 1010.4 hPa SW 3.1 km/h 5.6 km/h 85 % 0 mm
23:50 18.4 °C 15.6 °C 1010.7 hPa WSW 4.5 km/h 11.1 km/h 84 % 0 mm
23:55 18.4 °C 15.6 °C 1010.7 hPa WSW 2.3 km/h 5.6 km/h 84 % 0 mm
Crab Meadow Weather
Compliments of Weather Underground - 3 mb

Script developed by  Jim McMurry - jmcmurry@mwt.net Adapted for the template by  Wim van der Kuil - Leuven-Template.eu

Weather Terms: Enhanced Fujita Scale or EF-Scale - A scale of wind damage intensity in which wind speeds are inferred from analysis of wind damage. All tornadoes and most other windstorms are assigned a numerical rating from this scale according to the most intense damage caused by the storm. EF0 (weak) 6585 mph, light damage EF1 (weak) 86110 mph, moderate damage EF2 (strong) 111135 mph, considerable damage EF3 (strong) 136165 mph, severe damage EF4 (violent) 166200 mph, devastating damage EF5 (violent) >200 mph, incredible damage.